Meteo Giornale » Osservazioni meteo Italia » Pescara

ore: 06:20 - Osservazioni Meteo Pescara
Lat. 42° 26' N Lon. 14° 12' E Alt. 10 metri s.l.m.

sereno Europe/Rome

21 °C

Sereno

Temp. 24 Ore

21 °C

31 °C

Nord

3.7 Km/h

Dew point 19 °C

Umidità 88 %

Visibilità  10 Km

Il sole sorge alle ore 06:12

Il sole tramonta alle ore 20:02

Data e Ora Cielo e Fenomeni T °C DP °C Um. % Pres. hPa Vis. km Vento km/h
Oggi h: 06:20 sereno Sereno 21 19 88 1011 10 N 3.7
Oggi h: 05:50 sereno Sereno 21 19 88 1011 10 O 7.4
Oggi h: 05:20 sereno Sereno 21 19 88 1011 10 N 5.5
Oggi h: 04:50 sereno Sereno 21 19 88 1011 10 O/SO 7.4
Oggi h: 04:20 sereno Sereno 22 19 83 1011 10 N 5.5
Oggi h: 03:50 sereno Sereno 22 19 83 1011 10 SO 7.4
Oggi h: 03:20 sereno Sereno 22 19 83 1011 10 N 1.8
Oggi h: 02:50 sereno Sereno 22 20 88 1011 10 S/SO 9.3
Oggi h: 02:20 sereno Sereno 22 20 88 1012 10 S/SO 9.3
Oggi h: 01:50 sereno Sereno 23 20 83 1012 10 N 3.7
Oggi h: 01:20 sereno Sereno 23 21 88 1012 10 O/SO 7.4
Oggi h: 00:50 sereno Sereno 23 21 88 1013 10 SO 7.4
Oggi h: 00:20 sereno Sereno 23 21 88 1013 10 N 3.7
Ieri h: 23:50 sereno Sereno 23 21 88 1012 10 SO 9.3
Ieri h: 23:20 sereno Sereno 24 22 88 1012 10 N 3.7
Ieri h: 22:50 sereno Sereno 25 22 83 1012 10 N 5.5
Ieri h: 22:20 sereno Sereno 25 23 88 1012 10 N 1.8
Ieri h: 21:50 sereno Sereno 26 22 78 1012 10 N 3.7
Ieri h: 21:20 sereno Sereno 26 23 83 1012 10 N 1.8
Ieri h: 20:50 sereno Sereno 26 23 83 1012 10 N 3.7
Ieri h: 20:20 sereno Sereno 26 23 83 1012 10 NE 7.4
Ieri h: 19:50 sereno Sereno 27 23 78 1012 10 NE 9.3
Ieri h: 19:20 sereno Sereno 28 23 74 1012 10 NE 9.3
Ieri h: 18:50 sereno Sereno 29 23 70 1012 10 E/NE 11.1
Ieri h: 18:20 sereno Sereno 29 22 66 1012 10 E/NE 13
Ieri h: 17:50 sereno Sereno 29 22 66 1012 10 E/NE 11.1
Ieri h: 17:20 sereno Sereno 29 22 66 1013 10 NE 13
Ieri h: 16:50 sereno Sereno 30 22 62 1013 10 NE 13
Ieri h: 16:20 sereno Sereno 30 19 51 1012 10 E/NE 16.7
Ieri h: 15:50 sereno Sereno 31 20 52 1012 10 E/NE 16.7
Ieri h: 15:20 sereno Sereno 31 19 48 1012 10 E 16.7
Ieri h: 14:50 sereno Sereno 31 20 52 1013 10 E 16.7
Ieri h: 14:20 sereno Sereno 31 21 55 1013 10 E/NE 16.7
Ieri h: 13:50 sereno Sereno 30 21 58 1013 10 E/NE 16.7
Ieri h: 13:20 sereno Sereno 30 22 62 1013 10 E/NE 14.8
Ieri h: 12:50 sereno Sereno 30 22 62 1013 10 E/NE 14.8
Ieri h: 12:20 sereno Sereno 30 22 62 1013 10 E/NE 16.7
Ieri h: 11:50 sereno Sereno 29 22 66 1013 10 E/NE 13
Ieri h: 11:20 sereno Sereno 29 21 62 1013 10 E/NE 13
Ieri h: 10:50 sereno Sereno 30 21 58 1013 10 NE 14.8
Ieri h: 10:20 sereno Sereno 30 20 55 1013 10 N 5.5
Ieri h: 09:50 sereno Sereno 29 19 54 1013 10 N 3.7
Ieri h: 09:20 sereno Sereno 28 20 61 1013 10 N 3.7
Ieri h: 08:50 sereno Sereno 26 20 69 1013 10 N 3.7
Ieri h: 08:20 sereno Sereno 24 20 78 1013 10 SO 9.3
Ieri h: 07:50 sereno Sereno 23 20 83 1013 10 N 5.5
Ieri h: 07:20 sereno Sereno 21 20 94 1013 10 SO 7.4
Ieri h: 06:50 sereno Sereno 21 19 88 1012 10 N 1.8